7 * 24
多渠道服务支持
STARLINK-37072(NORAD编号68153)是SpaceX星链星座中的一颗第二代低轨互联网通信卫星。星链星座旨在构建全球卫星宽带互联网,该卫星运行于近地轨道,提供高速互联网接入服务。 作为SpaceX批量部署的星链卫星之一,它配备了星链特有的相控阵天线和离子推进系统,可进行轨道调整。目前这颗卫星正常工作,属于星链星座中承担全球通信覆盖的组成部分,支撑星座的网络容量和服务覆盖能力。(150字)
美国
(US)
| 数据来源 | 国际轨道数据 |
| 星历时间: | 2026-05-24T08:41:59+0800 1天前 查看轨道信息 |
| 半长轴: | 6843.672km |
| 偏心率: | 0.000089 |
| 轨道倾角: | 97.284° |
| 近地点辐角 | 122.681° |
| 升交点赤经 | 165.708° |
| 平近点角 | 237.452° |
| 近地点: | 464.925km |
| 远地点: | 466.145km |
| 周期: | 93.906分钟 |
| 每日圈数: | 15.334479 |